Weather History for Albion, NE

Change the Weather History Date:

Friday, June 21, 2013

  Actual Average (KOFK) Record (KOFK)
Temperature  
Mean Temperature 84 °F 72 °F  
Max Temperature 95 °F 84 °F 106 °F (1988)
Min Temperature 72 °F 60 °F 36 °F (1902)
Degree Days  
Heating Degree Days 0 0  
Month to date heating degree days 28  
Since 1 June heating degree days 28  
Since 1 July heating degree days 6641  
Cooling Degree Days 18 7  
Month to date cooling degree days 109  
Year to date cooling degree days 170  
Since 1 June cooling degree days 109  
Growing Degree Days 34 (Base 50)    
Moisture  
Dew Point 64 °F    
Average Humidity 56    
Maximum Humidity 82    
Minimum Humidity 30    
Precipitation  
Precipitation 0.00 in 0.15 in 1.65 in (1903)
Month to date precipitation 3.00  
Year to date precipitation 12.70  
Snow  
Snow 0.00 in 0.00 in - ()
Month to date snowfall 0.0  
Since 1 July snowfall 30.5  
Snow Depth -    
Sea Level Pressure  
Sea Level Pressure 29.79 in    
Wind  
Wind Speed 13 mph (SSE)    
Max Wind Speed 29 mph    
Max Gust Speed 36 mph    
Visibility 10 miles    
Events Thunderstorm    
T = Trace of Precipitation, MM = Missing Value Source: NWS Daily Summary

Daily Weather History Graph

Daily Weather History Graph

Search for Another Location

Airport:

Trip Planner

Search our weather history database for the weather conditions in past years. The results will help you decide how hot, cold, wet, or windy it might be!

Date:

Astronomy

Jun. 21, 2013 Rise Set
Actual Time 5:57 AM CDT 9:10 PM CDT
Civil Twilight 5:23 AM CDT 9:44 PM CDT
Nautical Twilight 4:39 AM CDT 10:28 PM CDT
Astronomical Twilight 3:46 AM CDT 11:21 PM CDT
Moon 7:21 PM CDT (6/21) 4:15 AM CDT (6/21)
Length of Visible Light 16h 21m
Length of Day
15h 12m
Waxing Gibbous, 95% of the Moon is Illuminated
Jun 21
Waxing Gibbous
Jun 23
Full
Jun 29
Last Quarter
Jul 8
New
Jul 15
First Quarter

Hourly Weather History & Observations

Time (CDT) Temp. Heat Index Dew Point Humidity Pressure Visibility Wind Dir Wind Speed Gust Speed Precip Events Conditions
12:15 AM 79.7 °F - 68.9 °F 69% 29.81 in 10.0 mi SSE 12.7 mph - N/A   Mostly Cloudy
2:35 AM 77.4 °F - 68.4 °F 74% 29.80 in 10.0 mi SSE 10.4 mph - N/A   Scattered Clouds
2:55 AM 77.2 °F - 68.0 °F 73% 29.79 in 10.0 mi SSE 9.2 mph - N/A   Scattered Clouds
3:15 AM 76.8 °F - 67.8 °F 74% 29.78 in 10.0 mi SSE 9.2 mph - N/A   Scattered Clouds
3:55 AM 75.6 °F - 67.3 °F 75% 29.78 in 10.0 mi SSE 9.2 mph - N/A   Mostly Cloudy
4:15 AM 75.2 °F - 67.1 °F 76% 29.78 in 10.0 mi SE 8.1 mph - N/A   Scattered Clouds
4:35 AM 74.7 °F - 67.1 °F 77% 29.78 in 10.0 mi SSE 9.2 mph - N/A   Scattered Clouds
4:55 AM 74.3 °F - 66.7 °F 77% 29.78 in 10.0 mi SSE 8.1 mph - N/A   Clear
5:15 AM 74.3 °F - 66.7 °F 77% 29.79 in 10.0 mi SE 4.6 mph - N/A   Clear
5:35 AM 73.4 °F - 66.4 °F 79% 29.80 in 10.0 mi Calm Calm - N/A   Clear
5:55 AM 72.5 °F - 66.4 °F 81% 29.79 in 10.0 mi SE 4.6 mph - N/A   Clear
6:15 AM 72.9 °F - 66.6 °F 81% 29.79 in 10.0 mi ESE 6.9 mph - N/A   Scattered Clouds
6:35 AM 73.0 °F - 66.6 °F 80% 29.80 in 10.0 mi ESE 6.9 mph - N/A   Scattered Clouds
6:55 AM 72.7 °F - 66.7 °F 82% 29.80 in 10.0 mi ENE 6.9 mph - N/A   Clear
7:15 AM 73.4 °F - 66.7 °F 80% 29.81 in 10.0 mi SE 9.2 mph - N/A   Clear
7:35 AM 74.1 °F - 67.1 °F 79% 29.82 in 10.0 mi SE 12.7 mph - N/A   Clear
7:55 AM 74.8 °F - 67.1 °F 77% 29.83 in 10.0 mi SE 10.4 mph - N/A   Clear
8:15 AM 75.6 °F - 67.3 °F 75% 29.83 in 10.0 mi SE 9.2 mph - N/A   Clear
8:35 AM 77.0 °F - 67.3 °F 72% 29.82 in 10.0 mi SSE 10.4 mph - N/A   Clear
8:55 AM 77.4 °F - 67.5 °F 71% 29.83 in 10.0 mi SSE 12.7 mph - N/A   Clear
9:15 AM 77.0 °F - 67.3 °F 72% 29.82 in 10.0 mi SSE 9.2 mph - N/A   Clear
9:35 AM 76.1 °F - 66.7 °F 73% 29.82 in 10.0 mi SE 11.5 mph - N/A   Clear
9:55 AM 75.4 °F - 66.9 °F 75% 29.81 in 10.0 mi SSE 10.4 mph - N/A   Clear
10:15 AM 77.4 °F - 68.0 °F 73% 29.80 in 10.0 mi SE 10.4 mph - N/A   Clear
10:35 AM 79.2 °F - 66.9 °F 66% 29.80 in 10.0 mi SSE 15.0 mph - N/A   Clear
10:55 AM 79.2 °F - 67.3 °F 67% 29.79 in 10.0 mi SE 15.0 mph - N/A Thunderstorm Clear
11:15 AM 80.1 °F 82.8 °F 68.5 °F 68% 29.79 in 10.0 mi SE 15.0 mph - N/A   Clear
11:35 AM 82.0 °F 84.7 °F 67.3 °F 61% 29.79 in 10.0 mi SSE 13.8 mph 21.9 mph N/A   Clear
11:55 AM 82.9 °F 85.4 °F 66.7 °F 58% 29.79 in 10.0 mi SSE 19.6 mph 25.3 mph N/A   Clear
12:15 PM 84.0 °F 85.4 °F 63.9 °F 51% 29.79 in 10.0 mi SSE 23.0 mph 29.9 mph N/A   Clear
12:35 PM 84.4 °F 85.4 °F 63.1 °F 49% 29.79 in 10.0 mi South 24.2 mph 31.1 mph N/A   Clear
12:55 PM 84.9 °F 86.1 °F 63.9 °F 49% 29.78 in 10.0 mi SSE 25.3 mph 32.2 mph N/A   Clear
1:15 PM 86.9 °F 88.1 °F 63.7 °F 46% 29.78 in 10.0 mi South 26.5 mph 34.5 mph N/A   Clear
1:35 PM 87.8 °F 87.9 °F 61.3 °F 41% 29.78 in 10.0 mi SSE 25.3 mph 35.7 mph N/A   Clear
1:55 PM 89.1 °F 90.0 °F 63.1 °F 42% 29.78 in 10.0 mi South 25.3 mph 32.2 mph N/A   Clear
2:15 PM 90.3 °F 91.2 °F 63.1 °F 40% 29.78 in 10.0 mi South 20.7 mph 29.9 mph N/A   Clear
2:35 PM 91.2 °F 91.8 °F 62.6 °F 38% 29.77 in 10.0 mi South 24.2 mph 32.2 mph N/A   Clear
2:55 PM 91.8 °F 91.9 °F 61.0 °F 36% 29.77 in 10.0 mi South 26.5 mph 34.5 mph N/A   Clear
3:15 PM 92.7 °F 93.2 °F 61.9 °F 36% 29.76 in 10.0 mi South 21.9 mph 34.5 mph N/A   Clear
3:35 PM 93.2 °F 93.3 °F 60.8 °F 34% 29.77 in 7.0 mi SSW 27.6 mph 34.5 mph N/A   Clear
3:55 PM 93.4 °F 93.5 °F 61.0 °F 34% 29.77 in 10.0 mi South 27.6 mph 34.5 mph N/A   Clear
4:15 PM 93.9 °F 94.8 °F 62.1 °F 35% 29.75 in 10.0 mi South 17.3 mph 35.7 mph N/A   Clear
4:35 PM 94.6 °F 94.3 °F 59.4 °F 31% 29.75 in 10.0 mi South 28.8 mph 34.5 mph N/A   Clear
4:55 PM 94.6 °F 94.3 °F 59.5 °F 31% 29.75 in 10.0 mi SSW 23.0 mph 29.9 mph N/A   Clear
5:15 PM 94.6 °F 94.7 °F 60.3 °F 32% 29.75 in 10.0 mi SSW 17.3 mph 28.8 mph N/A   Clear
5:35 PM 95.0 °F 94.8 °F 60.3 °F 31% 29.75 in 10.0 mi SSW 15.0 mph 27.6 mph N/A   Clear
5:55 PM 95.0 °F 94.4 °F 59.0 °F 30% 29.75 in 10.0 mi SSW 18.4 mph 24.2 mph N/A   Clear
6:15 PM 94.3 °F 93.7 °F 59.7 °F 31% 29.75 in 10.0 mi South 16.1 mph 26.5 mph N/A   Clear
6:35 PM 94.1 °F 94.2 °F 60.8 °F 33% 29.74 in 10.0 mi South 20.7 mph 24.2 mph N/A   Clear
6:55 PM 93.6 °F 93.4 °F 60.1 °F 33% 29.74 in 10.0 mi South 15.0 mph 24.2 mph N/A   Clear
7:15 PM 93.2 °F 92.9 °F 60.4 °F 33% 29.74 in 10.0 mi South 10.4 mph 18.4 mph N/A   Clear
7:35 PM 92.1 °F 92.1 °F 61.2 °F 35% 29.75 in 10.0 mi SSE 8.1 mph - N/A   Clear
7:55 PM 91.4 °F 91.4 °F 61.2 °F 36% 29.76 in 10.0 mi South 10.4 mph - N/A   Clear
8:15 PM 89.6 °F 90.1 °F 62.2 °F 40% 29.77 in 10.0 mi South 9.2 mph - N/A   Clear
8:35 PM 88.3 °F 88.9 °F 62.2 °F 42% 29.79 in 10.0 mi SSE 9.2 mph - N/A   Clear
8:55 PM 85.6 °F 86.6 °F 63.1 °F 47% 29.79 in 10.0 mi SSE 5.8 mph - N/A   Clear
9:15 PM 84.4 °F 85.9 °F 64.2 °F 51% 29.79 in 10.0 mi South 10.4 mph - N/A   Clear
9:35 PM 83.7 °F 84.7 °F 63.1 °F 50% 29.78 in 10.0 mi SSE 9.2 mph - N/A   Clear
9:55 PM 83.7 °F 84.7 °F 63.3 °F 50% 29.77 in 10.0 mi SSE 12.7 mph - N/A   Clear
10:15 PM 83.8 °F 84.9 °F 63.3 °F 50% 29.77 in 10.0 mi SSE 13.8 mph - N/A   Clear
10:35 PM 83.5 °F 84.5 °F 63.0 °F 50% 29.77 in 10.0 mi SSE 13.8 mph - N/A   Clear
10:55 PM 83.7 °F 84.5 °F 62.6 °F 49% 29.78 in 10.0 mi South 15.0 mph 21.9 mph N/A   Clear
11:15 PM 83.7 °F 84.5 °F 62.6 °F 49% 29.79 in 10.0 mi South 16.1 mph 21.9 mph N/A   Clear
11:35 PM 83.5 °F 84.5 °F 62.8 °F 50% 29.82 in 10.0 mi South 15.0 mph 20.7 mph N/A   Clear
11:55 PM 82.0 °F 83.0 °F 62.2 °F 51% 29.89 in 7.0 mi West 17.3 mph 33.4 mph N/A Thunderstorm Scattered Clouds